• MPC Preparation (Info)

  • MPEC 2016-V50 : 2016 VP1

    The following Minor Planet Electronic Circular may be linked-to from your own Web pages, but must not otherwise be redistributed electronically.

    A form allowing access to any MPEC is at the bottom of this page.


    Read MPEC 2016-V49 Read MPEC 2016-V51


    M.P.E.C. 2016-V50                                Issued 2016 Nov. 7, 11:47 UT
    
         The Minor Planet Electronic Circulars contain information on unusual
             minor planets and routine data on comets.  They are published
        on behalf of Division F of the International Astronomical Union by the
              Minor Planet Center, Smithsonian Astrophysical Observatory,
                              Cambridge, MA 02138, U.S.A.
    
                 Prepared using the Tamkin Foundation Computer Network
    
                                  MPC@CFA.HARVARD.EDU
                URL https://www.minorplanetcenter.net/    ISSN 1523-6714
    
                                       2016 VP1
    
    Observations:
         K16V01P* C2016 11 05.22181 02 59 39.17 +11 25 54.4          20.7 VqEV050G96
         K16V01P  C2016 11 05.23209 02 59 35.56 +11 25 46.3          20.1 VqEV050G96
         K16V01P  C2016 11 05.23649 02 59 34.08 +11 25 42.5          20.5 VqEV050G96
         K16V01P  C2016 11 05.24079 02 59 32.59 +11 25 39.0          20.1 VqEV050G96
         K16V01P  C2016 11 05.28799 02 59 16.34 +11 24 58.5          22.5 VqEV050I52
         K16V01P  C2016 11 05.28898 02 59 16.07 +11 24 58.4          20.6 VqEV050I52
         K16V01P  C2016 11 05.29216 02 59 14.94 +11 24 55.0          20.8 VqEV050I52
         K16V01P  C2016 11 05.29292 02 59 14.71 +11 24 54.7          20.9 VqEV050I52
         K16V01P  C2016 11 05.41870 02 58 33.68 +11 22 57.3          21.2 VqEV050G96
         K16V01P  C2016 11 05.42178 02 58 32.78 +11 22 53.9          21.2 VqEV050G96
         K16V01P  C2016 11 05.42726 02 58 31.13 +11 22 49.3          20.7 VqEV050G96
         K16V01P  C2016 11 05.42885 02 58 30.66 +11 22 47.2          20.7 VqEV050G96
         K16V01P  C2016 11 06.17847 02 56 10.12 +11 14 00.0          21.4 RoEV050926
         K16V01P  C2016 11 06.18532 02 56 08.68 +11 13 56.7          21.6 RoEV050926
         K16V01P  C2016 11 06.19013 02 56 07.52 +11 13 50.6                qEV050G96
         K16V01P  C2016 11 06.19215 02 56 07.11 +11 13 53.4          21.8 RoEV050926
         K16V01P  C2016 11 06.19302 02 56 06.86 +11 13 50.0          21.6 VqEV050G96
         K16V01P  C2016 11 06.19595 02 56 06.19 +11 13 48.1          21.5 VqEV050G96
         K16V01P  C2016 11 06.19824 02 56 05.65 +11 13 47.3          20.9 VqEV050G96
         K16V01P  C2016 11 07.29386 02 53 21.85 +11 05 04.5          21.5 VqEV050G96
         K16V01P  C2016 11 07.29745 02 53 21.29 +11 05 03.6          21.2 VqEV050G96
         K16V01P  C2016 11 07.30081 02 53 20.62 +11 05 01.4          20.5 VqEV050G96
         K16V01P  C2016 11 07.30410 02 53 20.05 +11 05 00.9          21.6 VqEV050G96
    
    Observer details:
    926 Tenagra II Observatory.  Observers M. Schwartz, P. R. Holvorcem.  Measurer
        M. Schwartz.  0.81-m f/7 Ritchey-Chretien + CCD.
    G96 Mt. Lemmon Survey.  Observers A. R. Gibbs, R. A. Kowalski.  Measurers
        E. J. Christensen, D. C. Fuls, A. R. Gibbs, A. D. Grauer, J. A. Johnson,
        R. A. Kowalski, S. M. Larson, G. J. Leonard, R. G. Matheny, R. L. Seaman,
        F. C. Shelly.  1.5-m reflector + 10K CCD.
    I52 Steward Observatory, Mt. Lemmon Station.  Observer R. G. Matheny.
        Measurers E. J. Christensen, D. C. Fuls, A. R. Gibbs, A. D. Grauer,
        J. A. Johnson, R. A. Kowalski, S. M. Larson, G. J. Leonard, R. G. Matheny,
        R. L. Seaman, F. C. Shelly.  1.0-m reflector + CCD.
    
    Orbital elements:
    2016 VP1                                                 Earth MOID = 0.0003 AU
    Epoch 2016 July 31.0 TT = JDT 2457600.5                 MPC
    M 337.97313              (2000.0)            P               Q
    n   0.50868270     Peri.   96.09221     +0.70634570     +0.70719826
    a   1.5541922      Node   218.90686     -0.66729001     +0.65072412
    e   0.5696174      Incl.    2.80758     -0.23621982     +0.27645749
    P   1.94           H   27.2           G   0.15           U   8
    Residuals in seconds of arc
    161105 G96  1.1+  0.1+    161105 G96  0.4-  0.0     161106 G96  0.4+  0.1+
    161105 G96  0.2-  0.3+    161105 G96  0.1+  0.4-    161106 G96  0.4+  0.4-
    161105 G96  0.2+  0.1+    161105 G96  0.1+  0.5+    161106 G96  0.1+  0.1-
    161105 G96  0.0   0.1+    161105 G96  0.2+  0.1-    161107 G96  0.1+  0.2-
    161105 I52  0.8-  0.6-    161106 926  1.3-  0.5+    161107 G96  0.9+  0.3+
    161105 I52  0.2+  0.2+    161106 926  0.3+  0.4+    161107 G96  0.5-  0.6-
    161105 I52  0.5-  0.4-    161106 G96  0.5+  0.6-    161107 G96  0.6-  0.2+
    161105 I52  0.0   0.1-    161106 926  0.0   0.4+
    
    Ephemeris:
    2016 VP1                 a,e,i = 1.55, 0.57, 3                   q = 0.6689
    Date    TT    R. A. (2000) Decl.     Delta      r     Elong.  Phase     V
    2016 10 08    14 33 49.4 -10 16 33   0.2513  0.7783    24.9   147.3    31.6
    ...
    2016 10 23    14 34 38.0 -09 57 35   0.09065 0.9060    10.9   168.1
    ...
    2016 10 31    13 43 51.5 -06 21 04   0.01212 0.9809    12.1   167.8    32.5
    ...
    2016 11 06    02 56 35.7 +11 17 04   0.04715 1.0382   174.6     5.2    21.1
    2016 11 07    02 53 58.1 +11 08 01   0.05698 1.0477   174.7     5.0    21.5
    2016 11 08    02 52 07.2 +11 01 50   0.06685 1.0573   174.5     5.2    21.9
    ...
    2016 11 14    02 47 18.0 +10 49 04   0.1270  1.1145   169.6     9.2    23.6
    ...
    2016 11 22    02 46 05.1 +10 55 08   0.2107  1.1898   161.9    14.9    25.0
    ...
    2016 12 07    02 49 43.7 +11 36 48   0.3834  1.3263   148.2    23.1    26.8
    
    A. U. Tomatic                (C) Copyright 2016 MPC           M.P.E.C. 2016-V50
    

    Read MPEC 2016-V49 Read MPEC 2016-V51


    MPEC number:

    Enter an MPEC number in one of the following forms:

    • 1997-B01 (the full form)
    • J97B01 (the packed version of the full form)
    • B01 (the abbreviated form)